Flag for Norway Weather past 2 weeks in Grimstad, Norway

Now
37 °F

Chilly.


Feels Like: 31 °F
Forecast: 40 / 42 °F
Wind: 9 mph from Northwest

Location: Torungen Fyr

Current Time: Jan 27, 2015 at 4:35:12 AM

Latest Report: Jan 27, 2015 at 3:00 AM


Visibility: N/A

Pressure: 29.80 "Hg

Humidity: 69%

Dew point: 28 °F

Location of GrimstadLocation

Historic Weather in Grimstad — Graph

°F

Grimstad temperature yesterday

Maximum temperature yesterday: 43 °F (at 7:00 AM)
Minimum temperature yesterday: 36 °F (at 9:00 PM)
Average temperature yesterday: 40 °F

Past Weeks' High & Low Weather Summary

 TemperatureHumidityPressure
High47 °F (Jan 12, 3:00 PM)98% (Jan 20, 2:00 AM)30.25 "Hg (Jan 20, 2:00 AM)
Low23 °F (Jan 23, 6:00 AM)64% (Jan 16, 9:00 PM)28.82 "Hg (Jan 16, 5:00 AM)
Average37 °F86%29.67 "Hg
* Reported Jan 12 3:00 AM — Jan 27 3:00 AM, Grimstad, Weather by CustomWeather, © 2014

Note: Actual official high and low records may vary slightly from our data, if they occured in-between our weather recording intervals... More about our weather records

Advertising

Grimstad weather history for previous 24 hours

 ConditionsComfort  
Time TempWeatherWind HumidityBarometerVisibility
3:00 AM
Jan 27
37 °FChilly.9 mph69%29.80 "HgN/A
2:00 AM37 °FChilly.7 mph71%29.78 "HgN/A
1:00 AM36 °FChilly.5 mph75%29.77 "HgN/A
12:00 AM37 °FChilly.3 mph75%29.75 "HgN/A
11:00 PM
Jan 26
37 °FChilly.2 mph79%29.73 "HgN/A
9:00 PM36 °FChilly.1 mph83%29.70 "HgN/A
8:00 PM37 °FChilly.2 mph85%29.70 "HgN/A
7:00 PM37 °FChilly.5 mph85%29.68 "HgN/A
6:00 PM38 °FChilly.6 mph88%29.67 "HgN/A
5:00 PM40 °FChilly.6 mph87%29.67 "HgN/A
4:00 PM41 °FQuite cool.5 mph88%29.67 "HgN/A
3:00 PM41 °FQuite cool.5 mph92%29.67 "HgN/A
2:00 PM41 °FQuite cool.8 mph92%29.68 "HgN/A
1:00 PM40 °FQuite cool.3 mph96%29.68 "HgN/A
12:00 PM40 °FQuite cool.3 mph97%29.69 "HgN/A
11:00 AM41 °FQuite cool.3 mph98%29.71 "HgN/A
10:00 AM41 °FQuite cool.6 mph98%29.72 "HgN/A
9:00 AM42 °FQuite cool.5 mph98%29.74 "HgN/A
8:00 AM42 °FQuite cool.7 mph98%29.75 "HgN/A
7:00 AM43 °FQuite cool.10 mph98%29.76 "HgN/A
6:00 AM42 °FQuite cool.12 mph98%29.79 "HgN/A
5:00 AM42 °FQuite cool.13 mph97%29.82 "HgN/A
Weather by CustomWeather, © 2014

See weather overviewHow to use our weather pages